When you browse on this site, cookies collect data to enhance your experience and personalize the content and advertising you see.
Visit our Privacy Policy to learn more. By continuing to use the site, you agree to this use of cookies and data.
  • în România
  • Lista ţărilor
  • Pe 7 zile
  • Temperatura apei
  • Meteo pe hartă
  • Widget-uri
  • user-avatar
    Intrare

    Meteo pe oră la Darwin

    Astăzi, 4 Iunie, Joi

    Timp Temperatura Precipitaţii Vânt Presiune Umiditate
    00:00 +21°C° 0 mm 6 m/s 762 mmHg 33%
    01:00 +20°C° 0 mm 6 m/s 762 mmHg 38%
    02:00 +20°C° 0 mm 6 m/s 762 mmHg 43%
    03:00 +20°C° 0 mm 6 m/s 761 mmHg 47%
    04:00 +19°C° 0 mm 6 m/s 762 mmHg 52%
    05:00 +19°C° 0 mm 6 m/s 762 mmHg 57%
    06:00 +17°C° 0 mm 6 m/s 762 mmHg 61%
    07:00 +20°C° 0 mm 6 m/s 762 mmHg 60%
    08:00 +21°C° 0 mm 7 m/s 762 mmHg 59%
    09:00 +23°C° 0 mm 7 m/s 762 mmHg 58%
    10:00 +26°C° 0 mm 6 m/s 762 mmHg 51%
    11:00 +28°C° 0 mm 6 m/s 761 mmHg 43%
    12:00 +32°C° 0 mm 5 m/s 761 mmHg 36%
    13:00 +32°C° 0 mm 4 m/s 760 mmHg 34%
    14:00 +33°C° 0 mm 4 m/s 759 mmHg 32%
    15:00 +34°C° 0 mm 3 m/s 759 mmHg 30%
    16:00 +31°C° 0 mm 3 m/s 759 mmHg 34%
    17:00 +29°C° 0 mm 3 m/s 759 mmHg 37%
    18:00 +27°C° 0 mm 3 m/s 759 mmHg 41%
    19:00 +25°C° 0 mm 2 m/s 760 mmHg 41%
    20:00 +24°C° 0 mm 2 m/s 760 mmHg 42%
    21:00 +23°C° 0 mm 2 m/s 761 mmHg 42%
    22:00 +21°C° 0 mm 3 m/s 761 mmHg 40%
    23:00 +21°C° 0 mm 4 m/s 761 mmHg 39%

    Mâine, 5 Iunie, Vineri

    Timp Temperatura Precipitaţii Vânt Presiune Umiditate
    00:00 +20°C° 0 mm 6 m/s 761 mmHg 38%
    01:00 +20°C° 0 mm 6 m/s 761 mmHg 42%
    02:00 +19°C° 0 mm 6 m/s 760 mmHg 47%
    03:00 +17°C° 0 mm 6 m/s 760 mmHg 52%
    04:00 +17°C° 0 mm 5 m/s 760 mmHg 59%
    05:00 +16°C° 0 mm 5 m/s 760 mmHg 65%
    06:00 +16°C° 0 mm 5 m/s 761 mmHg 71%
    07:00 +19°C° 0 mm 5 m/s 761 mmHg 67%
    08:00 +21°C° 0 mm 6 m/s 761 mmHg 62%
    09:00 +23°C° 0 mm 6 m/s 761 mmHg 57%
    10:00 +26°C° 0 mm 5 m/s 761 mmHg 51%
    11:00 +29°C° 0 mm 4 m/s 760 mmHg 45%
    12:00 +32°C° 0 mm 4 m/s 760 mmHg 40%
    13:00 +33°C° 0 mm 3 m/s 759 mmHg 37%
    14:00 +33°C° 0 mm 3 m/s 758 mmHg 35%
    15:00 +34°C° 0 mm 3 m/s 758 mmHg 33%
    16:00 +31°C° 0 mm 3 m/s 758 mmHg 44%
    17:00 +28°C° 0 mm 2 m/s 758 mmHg 55%
    18:00 +26°C° 0 mm 2 m/s 758 mmHg 67%
    19:00 +25°C° 0 mm 2 m/s 759 mmHg 70%
    20:00 +24°C° 0 mm 2 m/s 759 mmHg 73%
    21:00 +23°C° 0 mm 2 m/s 760 mmHg 76%
    22:00 +23°C° 0 mm 2 m/s 760 mmHg 73%
    23:00 +21°C° 0 mm 2 m/s 760 mmHg 69%

    Poimâine, 6 Iunie, Sâmbătă

    Timp Temperatura Precipitaţii Vânt Presiune Umiditate
    00:00 +20°C° 0 mm 3 m/s 760 mmHg 65%
    01:00 +20°C° 0 mm 4 m/s 759 mmHg 58%
    02:00 +20°C° 0 mm 5 m/s 759 mmHg 52%
    03:00 +19°C° 0 mm 5 m/s 759 mmHg 45%
    04:00 +19°C° 0 mm 5 m/s 759 mmHg 48%
    05:00 +17°C° 0 mm 5 m/s 759 mmHg 50%
    06:00 +17°C° 0 mm 5 m/s 759 mmHg 53%
    07:00 +20°C° 0 mm 5 m/s 759 mmHg 53%
    08:00 +22°C° 0 mm 5 m/s 759 mmHg 52%
    09:00 +25°C° 0 mm 4 m/s 760 mmHg 52%
    10:00 +27°C° 0 mm 4 m/s 759 mmHg 47%
    11:00 +30°C° 0 mm 3 m/s 759 mmHg 43%
    12:00 +34°C° 0 mm 3 m/s 758 mmHg 38%
    13:00 +34°C° 0 mm 3 m/s 758 mmHg 37%
    14:00 +34°C° 0 mm 3 m/s 757 mmHg 37%
    15:00 +35°C° 0 mm 4 m/s 757 mmHg 36%
    16:00 +31°C° 0 mm 3 m/s 757 mmHg 48%
    17:00 +29°C° 0 mm 3 m/s 757 mmHg 59%
    18:00 +27°C° 0 mm 2 m/s 757 mmHg 71%
    19:00 +26°C° 0 mm 2 m/s 758 mmHg 73%
    20:00 +25°C° 0 mm 2 m/s 758 mmHg 75%
    21:00 +25°C° 0 mm 2 m/s 758 mmHg 77%
    22:00 +24°C° 0 mm 2 m/s 758 mmHg 75%
    23:00 +24°C° 0 mm 3 m/s 758 mmHg 73%

    7 Iunie, Duminică

    Timp Temperatura Precipitaţii Vânt Presiune Umiditate
    00:00 +24°C° 0 mm 3 m/s 758 mmHg 72%
    01:00 +24°C° 0 mm 3 m/s 758 mmHg 69%
    02:00 +24°C° 0 mm 3 m/s 758 mmHg 66%
    03:00 +22°C° 0 mm 3 m/s 758 mmHg 64%
    04:00 +22°C° 0 mm 4 m/s 758 mmHg 67%
    05:00 +22°C° 0 mm 4 m/s 758 mmHg 70%
    06:00 +22°C° 0 mm 5 m/s 758 mmHg 74%
    07:00 +25°C° 0 mm 5 m/s 759 mmHg 70%
    08:00 +27°C° 0 mm 5 m/s 759 mmHg 66%
    09:00 +28°C° 0 mm 5 m/s 759 mmHg 62%
    10:00 +30°C° 0 mm 4 m/s 759 mmHg 56%
    11:00 +33°C° 0 mm 3 m/s 758 mmHg 49%
    12:00 +35°C° 0 mm 3 m/s 758 mmHg 43%
    13:00 +36°C° 0 mm 3 m/s 757 mmHg 41%
    14:00 +36°C° 0 mm 3 m/s 756 mmHg 40%
    15:00 +37°C° 0 mm 4 m/s 756 mmHg 38%
    16:00 +34°C° 0 mm 3 m/s 756 mmHg 48%
    17:00 +31°C° 0 mm 3 m/s 756 mmHg 58%
    18:00 +29°C° 0 mm 2 m/s 756 mmHg 67%
    19:00 +28°C° 0 mm 2 m/s 757 mmHg 70%
    20:00 +28°C° 0 mm 2 m/s 757 mmHg 73%
    21:00 +27°C° 0 mm 1 m/s 758 mmHg 75%
    22:00 +27°C° 0.1 mm 2 m/s 758 mmHg 75%
    23:00 +27°C° 0.1 mm 2 m/s 758 mmHg 75%

    8 Iunie, Luni

    Timp Temperatura Precipitaţii Vânt Presiune Umiditate
    00:00 +27°C° 0.1 mm 2 m/s 758 mmHg 75%
    01:00 +26°C° 0.1 mm 3 m/s 758 mmHg 74%
    02:00 +25°C° 0.1 mm 3 m/s 758 mmHg 73%
    03:00 +25°C° 0.1 mm 3 m/s 757 mmHg 72%
    04:00 +23°C° 0 mm 4 m/s 758 mmHg 74%
    05:00 +23°C° 0 mm 4 m/s 758 mmHg 76%
    06:00 +22°C° 0 mm 5 m/s 758 mmHg 78%
    07:00 +25°C° 0 mm 5 m/s 759 mmHg 70%
    08:00 +26°C° 0 mm 6 m/s 759 mmHg 61%
    09:00 +28°C° 0 mm 6 m/s 759 mmHg 53%
    10:00 +30°C° 0 mm 5 m/s 759 mmHg 48%
    11:00 +33°C° 0 mm 4 m/s 759 mmHg 43%
    12:00 +35°C° 0 mm 3 m/s 758 mmHg 38%
    13:00 +35°C° 0 mm 3 m/s 757 mmHg 36%
    14:00 +36°C° 0 mm 3 m/s 757 mmHg 35%
    15:00 +37°C° 0 mm 3 m/s 756 mmHg 33%
    16:00 +34°C° 0 mm 3 m/s 757 mmHg 42%
    17:00 +31°C° 0 mm 2 m/s 757 mmHg 51%
    18:00 +28°C° 0 mm 2 m/s 757 mmHg 60%
    19:00 +28°C° 0 mm 2 m/s 758 mmHg 64%
    20:00 +27°C° 0 mm 2 m/s 758 mmHg 67%
    21:00 +26°C° 0 mm 2 m/s 759 mmHg 70%
    22:00 +26°C° 0 mm 2 m/s 759 mmHg 68%
    23:00 +25°C° 0 mm 2 m/s 759 mmHg 67%

    9 Iunie, Marţi

    Timp Temperatura Precipitaţii Vânt Presiune Umiditate
    00:00 +25°C° 0 mm 3 m/s 759 mmHg 65%
    01:00 +25°C° 0 mm 4 m/s 759 mmHg 64%
    02:00 +25°C° 0 mm 5 m/s 758 mmHg 63%
    03:00 +24°C° 0 mm 6 m/s 758 mmHg 62%
    04:00 +24°C° 0 mm 6 m/s 759 mmHg 66%
    05:00 +23°C° 0 mm 6 m/s 759 mmHg 70%
    06:00 +22°C° 0 mm 5 m/s 759 mmHg 75%
    07:00 +23°C° 0 mm 6 m/s 760 mmHg 70%
    08:00 +26°C° 0 mm 6 m/s 760 mmHg 65%
    09:00 +27°C° 0 mm 6 m/s 760 mmHg 60%
    10:00 +29°C° 0 mm 5 m/s 760 mmHg 53%
    11:00 +32°C° 0 mm 4 m/s 760 mmHg 46%
    12:00 +34°C° 0 mm 3 m/s 759 mmHg 38%
    13:00 +35°C° 0 mm 3 m/s 759 mmHg 36%
    14:00 +36°C° 0 mm 3 m/s 758 mmHg 34%
    15:00 +37°C° 0 mm 3 m/s 757 mmHg 32%
    16:00 +34°C° 0 mm 2 m/s 758 mmHg 41%
    17:00 +31°C° 0 mm 2 m/s 758 mmHg 50%
    18:00 +28°C° 0 mm 2 m/s 758 mmHg 59%
    19:00 +28°C° 0 mm 2 m/s 759 mmHg 63%
    20:00 +27°C° 0 mm 1 m/s 759 mmHg 67%
    21:00 +26°C° 0 mm 1 m/s 760 mmHg 71%
    22:00 +26°C° 0 mm 1 m/s 760 mmHg 69%
    23:00 +25°C° 0 mm 2 m/s 760 mmHg 67%
    Arată mai mult